Location: Cabeza de los Veneras
(40.2000°N, 5.2000°W)
Time: 07:05:16
(UTC+00:00)

ADEOS - Visible Passes

Search period start: 16 July 2024 00:00
Search period end: 26 July 2024 00:00
Orbit: 791 x 793 km, 98.9° (Epoch: 15 July)

Date Brightness Start Highest point End Pass type
(mag) Time Alt. Az. Time Alt. Az. Time Alt. Az.
17 Jul 6.1 20:44:59 10° SW 20:48:21 17° W 20:51:45 10° NW visible
18 Jul 5.4 20:14:30 10° SSW 20:19:07 32° W 20:23:47 10° NW visible
20 Jul 6.3 20:58:37 10° WSW 21:00:59 13° W 21:03:22 10° WNW visible
21 Jul 5.8 20:27:28 10° SSW 20:31:42 25° W 20:35:57 10° NW visible
24 Jul 6.1 20:40:37 10° SW 20:44:18 19° W 20:47:59 10° NW visible
25 Jul 5.2 20:10:19 10° SSW 20:15:04 36° W 20:19:52 10° NNW visible
